Regional Weather Roundup
Issued by NWS

Home | Current Version | Previous Version | Text Only | Print | Product List | Glossary Off
Versions: 1 2 3 4 5 6 7 8 9 10 11 12 13 14 15 16 17 18 19 20 21 22 23 24 25 26 27 28 29 30 31 32 33 34 35 36 37 38 39 40 41 42 43 44 45 46 47 48 49 50

000
ASUS43 KMPX 212110
RWRMN
WEATHER ROUNDUP FOR MINNESOTA
NATIONAL WEATHER SERVICE TWIN CITIES/CHANHASSEN MN
400 PM CDT MON JUL 21 2014


NOTE: "FAIR" INDICATES FEW OR NO CLOUDS BELOW 12,000 FEET WITH NO
SIGNIFICANT WEATHER AND/OR OBSTRUCTIONS TO VISIBILITY. N/A MEANS
CURRENT SKY AND/OR WEATHER CONDITIONS ARE NOT AVAILABLE.

MNZ060>063-068>070-212200-
   Twin Cities Metro

CITY           SKY/WX    TMP DP  RH WIND       PRES   REMARKS
TWIN CITIES    PTSUNNY   91  74  57 S16       29.86F HX 100
ST PAUL        MOSUNNY   89  75  63 SE13      29.86F HX  99
CRYSTAL        SUNNY     91  75  59 SE13      29.84F HX 101
BLAINE         MOSUNNY   90  75  62 SE15      29.87F HX 100
LAKEVILLE      SUNNY     88  75  66 SE10G17   29.87F HX  97
EDEN PRAIRIE   MOSUNNY   91  75  59 S17       29.84F HX 101
SOUTH ST PAUL  SUNNY     88  73  61 SE12G17   29.87F HX  96
LAKE ELMO      PTSUNNY   88  77  70 SE10      29.90F HX 100
$$
MNZ001>005-007-008-013>017-022>024-027-028-212200-
   Northwest Minnesota

CITY           SKY/WX    TMP DP  RH WIND       PRES   REMARKS
BEMIDJI        PTSUNNY   88  74  63 S8        29.83S HX  96
HALLOCK        MOSUNNY   86  64  48 NE9       29.78F
ROSEAU         MOSUNNY   84  72  65 NE9       29.82S
WARROAD        SUNNY     82  64  54 NE8       29.84F
THIEF RVR FALL MOSUNNY   88  75  66 SE7       29.78F HX  97
CROOKSTON      MOSUNNY   90  73  58 S8        29.77F HX  98
FOSSTON        MOSUNNY   88  72  58 CALM      29.82F HX  94
DETROIT LAKES  SUNNY     90  73  58 S17       29.81F HX  98
MOORHEAD       MOSUNNY   90  79  70 S14       29.76S HX 105
PARK RAPIDS    SUNNY     90  73  57 S16       29.83F HX  98
$$
MNZ006-009>011-018-025>026-212200-
   North Central Minnesota

CITY           SKY/WX    TMP DP  RH WIND       PRES   REMARKS
BAUDETTE       MOSUNNY   88  69  53 N8        29.83F HX  92
FLAG ISLAND    SUNNY     79  63  57 NE5       29.84F
INTL FALLS     MOSUNNY   88  71  57 S6        29.83F HX  94
WASKISH        SUNNY     88  73  62 CALM      29.83F HX  96
BIG FORK       SUNNY    N/A N/A N/A S8        29.86F
LONGVILLE      MOSUNNY   88  75  66 S10       29.85S HX  97
GRAND RAPIDS   SUNNY     90  72  55 S14       29.86S HX  96
CRANE LAKE     SUNNY     88  70  55 S7        29.86F HX  92
ORR            MOSUNNY   90  68  48 S5        29.84F HX  93
COOK           SUNNY     90  70  51 SE10G16   29.87F HX  95
$$
MNZ012-019>021-037-212200-
   Northeast Minnesota

CITY           SKY/WX    TMP DP  RH WIND       PRES   REMARKS
DULUTH         MOSUNNY   88  72  58 S14       29.89F HX  94
ELY            SUNNY     90  70  51 SW6       29.89S HX  95
HIBBING        SUNNY     89  71  55 VRB6      29.87F HX  95
EVELETH        SUNNY     90  70  51 S12       29.89F HX  95
DULUTH HARBOR  SUNNY     91  73  55 S12       29.85F HX 100
TWO HARBORS    SUNNY     88  72  58 S12       29.87F HX  94
SILVER BAY     SUNNY     86  73  66 S12       29.88S HX  93
GRAND MARAIS     N/A     59  55  87 S9        29.88S
G MARAIS ARPRT SUNNY     82  68  61 S9        29.95S
$$
MNZ029>031-032-039>041-046>048-054>057-064-212200-
   West Central Minnesota

CITY           SKY/WX    TMP DP  RH WIND       PRES   REMARKS
FERGUS FALLS   PTSUNNY   88  72  58 S15       29.79R HX  94
WHEATON        CLOUDY    81  75  83 SE13      29.79F
MORRIS         PTSUNNY   84  77  79 S7G16     29.83R HX  94
ALEXANDRIA     SUNNY     89  74  60 S16G26    29.84F HX  98
ELBOW LAKE     PTSUNNY   85  76  73 S20       29.81R HX  94
WADENA         MOSUNNY   88  75  66 SE16      29.83S HX  97
GLENWOOD       SUNNY     90  75  62 SE17      29.85S HX 100
APPLETON       CLOUDY    88  75  66 SE7       29.81R HX  97
BENSON         MOSUNNY   86  75  70 S13       29.81F HX  95
MADISON        CLOUDY    90  79  70 S8        29.80R HX 105
WILLMAR        FAIR      88  73  62 SE13G20   29.84S HX  96
$$
MNZ033>034-036-042>043-049>051-058-059-212200-
   Central Minnesota

CITY           SKY/WX    TMP DP  RH WIND       PRES   REMARKS
ST CLOUD       MOSUNNY   92  74  55 S17G23    29.83F HX 101
SAUK CENTRE    FAIR      91  75  59 SE13      29.84S HX 100
PAYNESVILLE    MOSUNNY   86  73  66 E12G20    29.85S HX  93
AITKIN         MOSUNNY   90  77  66 S8G17     29.86S HX 102
PINE RIVER     MOSUNNY   88  75  66 S10       29.88S HX  97
BRAINERD       MOSUNNY   88  74  63 S17       29.85F HX  96
STAPLES        MOSUNNY   90  73  58 SE8       29.84S HX  98
LONG PRAIRIE   FAIR      88  73  62 SE13G20   29.85S HX  96
LITTLE FALLS   MOSUNNY   90  72  55 SE15G22   29.84F HX  96
LITCHFIELD     MOSUNNY   91  79  66 SE8       29.84S HX 107
BUFFALO        MOSUNNY   89  73  59 SE10      29.85F HX  96
MAPLE LAKE     MOSUNNY   89  77  66 SE6       29.85F HX 102
$$
MNZ037-044-045-052-053-212200-
   East Central Minnesota

CITY           SKY/WX    TMP DP  RH WIND       PRES   REMARKS
PRINCETON      SUNNY     91  75  59 SE15      29.86F HX 102
CAMBRIDGE      SUNNY     91  75  59 SE12G24   29.85F HX 102
RUSH CITY      SUNNY     88  74  63 S14G22    29.87F HX  96
MOOSE LAKE     PTSUNNY   90  72  55 S6        29.86S HX  96
HINCKLEY       FAIR      90  75  62 S14       29.87F HX 100
CLOQUET        MOSUNNY   88  70  55 S8        29.89S HX  92
MCGREGOR       MOSUNNY   88  72  58 S13       29.87F HX  94
$$
MNZ071>073-080-081-089-090-097-098-212200-
   Southwest Minnesota

CITY           SKY/WX    TMP DP  RH WIND       PRES   REMARKS
MONTEVIDEO     PTSUNNY   88  77  70 S9        29.81F HX 100
GRANITE FALLS  PTSUNNY   87  75  67 SE17      29.82F HX  96
CANBY          CLOUDY    88  76  67 S8        29.82S HX  98
MARSHALL       PTSUNNY   88  73  62 S13G23    29.83R HX  96
REDWOOD FALLS  CLOUDY    88  74  63 S20G25    29.83F HX  96
OLIVIA         PTSUNNY   90  77  66 S15       29.84R HX 102
PIPESTONE      PTSUNNY   82  73  74 S15       29.85R
WINDOM         PTSUNNY   84  73  70 SE13      29.87S HX  91
WORTHINGTON    MOSUNNY   81  73  78 S14       29.86F
JACKSON        CLOUDY    82  72  69 S12       29.88F
TRACY          PTSUNNY   84  75  72 SE13G20   29.82F HX  92
SLAYTON        PTSUNNY   85  74  70 SE15      29.85F HX  92
$$
MNZ065>067-074>077-082>085-091>093-212200-
   South Central Minnesota

CITY           SKY/WX    TMP DP  RH WIND       PRES   REMARKS
MANKATO        PTSUNNY   88  73  62 S16G22    29.86R HX  96
NEW ULM        SUNNY     88  75  66 S15       29.85R HX  97
ST JAMES       SUNNY     86  73  66 S14G20    29.87R HX  93
FAIRMONT       CLOUDY    84  72  65 S17G23    29.88R
GLENCOE        MOSUNNY   92  73  52 SE13G20   29.84S HX 100
FARIBAULT      MOSUNNY   91  72  52 SE16      29.87F HX  98
OWATONNA       SUNNY     90  73  58 SE17      29.87F HX  98
WASECA         MOSUNNY   86  68  54 S14G22    29.89S
ALBERT LEA     SUNNY     86  73  66 S14G20    29.88F HX  93
$$
MNZ078>079-086>088-094>096-212200-
   Southeast Minnesota

CITY           SKY/WX    TMP DP  RH WIND       PRES   REMARKS
ROCHESTER      SUNNY     86  74  67 SE18G25   29.92F HX  94
RED WING       PTSUNNY   91  73  55 SE8       29.88F HX 100
STANTON        MOSUNNY   88  74  61 SE9G20    29.86F HX  97
DODGE CENTER   SUNNY     88  75  66 SE16G23   29.90F HX  97
WINONA         CLOUDY    90  72  55 SE10      29.93F HX  96
AUSTIN         SUNNY     88  72  58 S16       29.89F HX  94
PRESTON        SUNNY     85  76  73 S15G22    29.94F HX  94
$$
ABBREVIATIONS USED IN REMARKS
   TC - TEMPERATURES IN CELSIUS
  WCI - WIND CHILL INDEX
   HX - HEAT INDEX
  VSB - VISIBILITY
$$



USA.gov is the U.S. government's official web portal to all federal, state and local government web resources and services.